Voltar ao catálogo

STARLINK-31614

AtivoComunicaçõesVLEO
NORAD 59328·PAYLOAD·🇺🇸 United States

Lançado Mar 25, 2024 de Cape Canaveral Space Force Station

Loading…

Próximas Passagens (próximas 24 horas)

TLE

AtualizadoSource: CelesTrak SupGP

Época: Sep 15, 2026, 02:17 UTC

1 59328C 24057J   26258.09562500 -.00051507  00000+0 -18658-2 0  2582
2 59328  43.0027 197.5201 0001341 270.6154 139.9350 15.27600580    19

Acompanhe STARLINK-31614 em tempo real com AllMySat

Download on the App Store